CAPE
86 161 437 316 245 406 439 467 433 415 686 630 465 445 508 663 893 908 938 931 716 518 489 377 516 661 628 893 1344 1342 1204 1487 1439 1234 1101 677 1357 923 648 543 651 1163 1281
72 163 417 522 586 632 502 637 745 724 645 627 667 636 573 702 905 1029 1065 880 658 566 451 544 503 757 769 900 1341 1477 1423 1302 1210 1168 680 586 846 1494 1415 1617 805 374 932
131 323 408 505 598 546 771 718 560 527 568 667 675 675 675 744 872 1061 1031 948 730 404 464 572 416 418 579 638 1410 1419 1348 1385 1312 1234 971 347 298 1304 1413 1259 1259 207 439
218 364 393 491 544 518 606 607 592 427 507 585 594 616 609 561 550 669 879 766 575 609 595 517 521 645 558 694 888 1216 1255 1351 1555 965 772 846 386 898 1170 1352 713 322 640
300 331 386 519 581 451 461 509 563 566 649 750 759 680 555 429 530 709 537 564 699 536 537 509 508 557 549 455 399 784 1116 1069 1055 814 613 733 990 1044 1126 1240 842 987 1470
325 366 627 513 462 388 390 423 470 378 341 336 325 385 474 709 538 281 540 744 550 516 600 460 475 547 624 341 417 694 1178 720 390 569 743 754 868 1357 1241 1284 1314 1028 1359
325 578 582 397 305 285 327 282 301 351 298 280 280 276 290 288 219 272 338 358 435 380 505 541 490 503 494 540 449 652 916 492 219 435 677 1013 997 1197 1301 1284 1245 1486 1517
265 508 664 592 496 411 416 394 329 355 338 309 287 326 340 572 532 501 696 862 633 633 453 491 437 434 530 431 521 574 566 299 229 283 612 810 448 423 1115 1357 1459 1359 1369
407 392 673 436 400 411 439 423 317 367 357 419 326 372 450 754 890 923 802 576 633 599 518 369 423 386 304 404 391 544 518 599 88 156 509 574 595 825 232 803 1355 1240 1061
258 264 411 341 709 897 872 727 578 488 482 547 363 679 1051 624 851 669 714 874 790 726 601 565 337 349 312 273 243 457 505 506 100 187 379 479 639 1136 1041 688 508 1273 1136
277 230 284 269 662 1019 899 864 908 822 781 911 1025 991 774 655 410 468 93 654 1000 743 669 626 406 310 290 227 106 196 410 174 108 186 278 410 726 833 667 1170 792 969 1143
152 394 543 596 743 654 722 816 1147 1131 1184 971 988 777 496 501 164 288 233 185 800 961 760 485 400 264 324 238 236 285 69 71 45 155 222 363 467 902 677 658 719 742 1040
59 243 571 609 718 662 724 739 976 776 772 802 450 494 488 271 323 476 285 228 102 466 606 486 348 220 74 112 97 100 71 47 32 122 179 342 523 918 676 788 816 736 574
14 37 220 499 460 445 450 514 592 581 312 288 334 318 350 233 84 393 162 173 170 0 75 285 231 88 58 65 62 58 46 115 74 50 120 215 417 893 804 760 1092 980 609
17 17 38 138 124 172 220 419 304 399 393 425 462 472 570 453 288 26 156 109 178 0 0 1 54 78 41 19 28 29 50 91 82 84 116 226 261 521 907 961 814 739 825
91 63 96 84 68 83 123 341 360 331 457 381 426 494 630 338 285 221 43 136 240 260 67 47 6 19 15 31 81 115 76 45 139 86 115 254 131 192 840 733 1108 898 763
110 192 188 265 298 316 288 424 663 630 391 616 573 573 685 609 602 507 286 350 536 375 218 121 56 109 85 75 112 153 101 22 43 83 110 43 119 207 667 916 875 850 889
87 207 272 252 361 460 458 510 616 594 598 619 644 595 793 844 796 733 700 564 635 384 320 177 132 116 127 124 121 150 134 87 59 93 55 70 63 65 602 893 784 567 730
36 104 281 372 422 408 443 460 607 905 784 843 743 927 991 966 856 729 669 802 313 266 274 274 133 142 137 77 116 125 111 73 86 119 72 49 78 115 117 197 283 255 400
3 45 192 358 501 420 378 486 716 1030 784 734 971 1002 585 72 386 642 790 517 652 485 292 309 213 186 131 67 142 112 77 78 82 30 54 70 91 79 132 104 0 19 58
0 34 144 369 482 380 431 405 633 782 1048 790 672 754 594 77 58 702 293 501 850 706 715 503 214 224 169 82 49 51 115 111 57 13 90 126 149 159 99 59 69 27 78
11 57 145 354 422 381 293 446 623 872 1259 1131 827 584 462 63 345 923 657 526 601 582 536 387 322 160 147 65 39 49 46 69 121 172 140 129 87 163 139 133 80 64 46
20 75 108 234 337 404 389 446 773 975 1041 866 906 912 875 708 498 498 775 564 429 438 386 246 208 188 163 122 70 25 31 29 65 80 189 234 173 134 156 313 340 261 198
18 62 111 216 381 469 356 516 995 1090 859 949 1055 980 966 529 933 1139 935 852 841 242 353 331 172 154 126 108 113 64 26 0 34 37 76 207 284 301 267 215 348 439 298
54 76 159 322 462 605 525 883 1015 1032 912 861 729 669 557 636 1040 1574 1202 694 814 490 517 429 215 150 72 2 71 115 103 19 0 0 0 74 151 181 236 219 187 275 256
95 136 251 345 476 680 588 835 1070 1066 889 924 1127 975 814 376 1129 1463 994 471 773 910 1023 791 232 193 246 137 92 52 90 88 20 0 1 0 12 77 63 31 9 22 40
CIN
-3 -3 -7 -7 -12 -9 -12 -13 -12 -7 -1 -4 -10 -10 -12 -1 -0 -0 -0 -0 -5 -0 -1 -10 -7 -2 -6 -5 -0 -0 -0 -0 -0 -0 -0 -2 -0 -0 -18 -40 -21 -0 -1
-14 -3 -1 -8 -21 -6 -70 -11 -2 -4 -2 -0 -4 -1 -16 -7 -0 -0 -0 -0 -10 -0 -0 -0 -0 -0 -2 -0 -0 -0 -0 -0 -0 -0 -0 -6 -0 -0 -0 -0 -2 -27 -0
-10 -1 -17 -33 -18 -12 -0 -1 -6 -7 -2 -1 -4 -2 -14 -5 -0 -0 -0 -0 -4 -7 -2 -0 -0 -6 -1 -2 -0 -0 -0 -0 -0 -0 -1 -24 -34 -0 -0 -0 -0 -68 -20
-12 -13 -1 -10 -6 -13 -5 -14 -1 -5 -1 -1 -3 -1 -8 -6 -10 -1 -0 -0 -3 -0 -0 -0 -0 -0 -0 -0 -5 -0 -0 -0 -0 -4 -4 -1 -11 -0 -0 -0 -9 -46 -22
-12 -7 -2 -8 -6 -5 -11 -8 -21 -5 -4 -1 -1 -0 -2 -3 -6 -3 -12 -0 -0 -0 -0 -1 -0 -0 -1 -8 -18 -5 -0 -5 -5 -8 -7 -5 -1 -0 -0 -0 -1 -0 -0
-6 -3 -0 -21 -9 -9 -14 -15 -20 -32 -22 -37 -23 -18 -2 -0 -1 -23 -2 -0 -1 -0 -0 -18 -3 -0 -0 -18 -21 -2 -0 -25 -39 -27 -10 -5 -4 -0 -0 -0 -0 -0 -0
-11 -1 -0 -9 -12 -14 -17 -31 -35 -37 -39 -40 -37 -16 -20 -17 -19 -16 -4 -10 -9 -5 -0 -1 -15 -0 -2 -2 -10 -8 -0 -24 -57 -43 -19 -3 -2 -0 -1 -11 -0 -0 -0
-53 -8 -1 -10 -28 -27 -19 -28 -27 -25 -43 -34 -28 -9 -10 -2 -2 -2 -1 -0 -2 -1 -1 -0 -1 -11 -5 -5 -2 -7 -9 -31 -46 -55 -31 -12 -15 -15 -0 -0 -0 -0 -0
-39 -30 -9 -54 -50 -36 -27 -41 -33 -22 -26 -23 -23 -21 -6 -0 -0 -1 -0 -0 -0 -0 -6 -6 -2 -9 -17 -9 -6 -8 -11 -12 -68 -69 -28 -23 -13 -2 -46 -6 -0 -0 -4
-99 -85 -47 -86 -19 -3 -3 -16 -7 -12 -8 -3 -12 -0 -0 -4 -0 -0 -2 -0 -0 -0 -0 -4 -11 -12 -23 -21 -14 -6 -7 -22 -63 -62 -38 -27 -6 -0 -0 -11 -23 -0 -0
-96 -97 -82 -98 -38 -6 -13 -11 -0 -4 -0 -0 -0 -0 -4 -6 -18 -9 -25 -3 -0 -0 -0 -3 -9 -16 -18 -30 -28 -12 -9 -39 -63 -56 -51 -29 -4 -0 -0 -0 -0 -0 -0
-175 -90 -64 -62 -51 -40 -32 -17 -3 -1 -1 -1 -1 -7 -38 -21 -42 -25 -15 -14 -0 -0 -1 -4 -10 -16 -14 -32 -32 -21 -51 -66 -73 -67 -64 -39 -19 -1 -0 -2 -0 -0 -2
-233 -152 -106 -103 -76 -55 -47 -36 -24 -26 -22 -22 -46 -37 -34 -48 -33 -30 -28 -23 -35 -6 -10 -12 -7 -24 -48 -39 -56 -52 -55 -69 -71 -70 -60 -30 -18 -0 -1 -1 -0 -0 -5
-336 -288 -204 -146 -131 -105 -98 -81 -67 -62 -86 -98 -81 -67 -60 -61 -88 -31 -55 -53 -36 -0 -46 -21 -21 -31 -66 -51 -58 -63 -59 -57 -63 -72 -60 -42 -16 -0 -0 -0 -0 -0 -1
-386 -394 -329 -232 -218 -182 -165 -116 -114 -87 -80 -82 -73 -59 -63 -45 -56 -118 -85 -91 -49 -0 -0 -43 -64 -35 -50 -75 -82 -77 -61 -53 -69 -71 -58 -28 -20 -2 -0 -1 -0 -0 -0
-285 -321 -311 -264 -254 -227 -179 -109 -101 -110 -89 -97 -90 -76 -64 -73 -68 -68 -89 -86 -54 -54 -80 -83 -67 -126 -119 -84 -51 -52 -60 -75 -56 -66 -56 -29 -33 -22 -1 -1 -0 -0 -0
-253 -248 -252 -181 -167 -155 -131 -102 -84 -97 -128 -87 -87 -81 -66 -65 -57 -61 -71 -56 -45 -57 -61 -74 -91 -69 -75 -71 -49 -48 -52 -77 -65 -57 -57 -67 -41 -24 -2 -1 -1 -1 -1
-227 -178 -167 -187 -172 -144 -122 -110 -97 -110 -109 -97 -87 -98 -72 -63 -53 -59 -56 -54 -60 -80 -70 -73 -64 -60 -55 -51 -45 -28 -50 -53 -52 -43 -56 -59 -56 -49 -5 -0 -1 -1 -1
-243 -188 -150 -163 -170 -154 -149 -141 -112 -87 -84 -84 -95 -79 -61 -60 -61 -60 -61 -54 -85 -86 -78 -69 -76 -57 -49 -48 -38 -30 -40 -42 -41 -31 -37 -60 -67 -46 -27 -4 -1 -6 -3
-200 -225 -155 -145 -165 -167 -184 -157 -128 -103 -96 -100 -77 -83 -101 -182 -95 -75 -65 -81 -72 -72 -76 -71 -69 -82 -52 -38 -13 -7 -11 -15 -20 -47 -45 -49 -39 -51 -22 -14 -0 -124 -62
-0 -240 -156 -145 -166 -197 -213 -204 -136 -82 -62 -86 -103 -106 -117 -214 -213 -81 -104 -87 -70 -56 -59 -70 -90 -87 -82 -30 -2 -5 -0 -2 -21 -72 -51 -42 -35 -31 -33 -37 -35 -59 -25
-302 -198 -160 -158 -167 -194 -221 -216 -157 -81 -63 -80 -118 -134 -139 -229 -138 -74 -69 -71 -79 -63 -72 -71 -70 -85 -71 -67 -58 -33 -37 -37 -32 -23 -49 -59 -69 -43 -40 -35 -42 -34 -39
-396 -251 -177 -172 -162 -184 -208 -214 -152 -123 -105 -97 -95 -89 -87 -100 -117 -94 -65 -71 -79 -66 -57 -105 -80 -70 -69 -78 -83 -91 -54 -55 -57 -84 -59 -57 -74 -84 -74 -21 -11 -14 -20
-344 -289 -251 -203 -164 -166 -214 -176 -106 -73 -53 -58 -56 -74 -83 -122 -88 -73 -70 -69 -73 -104 -68 -70 -91 -84 -79 -56 -85 -94 -113 -0 -61 -73 -117 -69 -68 -65 -74 -78 -31 -5 -9
-314 -280 -253 -214 -172 -152 -183 -130 -93 -81 -86 -88 -91 -89 -104 -126 -98 -69 -76 -86 -66 -86 -79 -73 -86 -81 -76 -3 -63 -64 -79 -101 -0 -0 -0 -72 -89 -83 -77 -72 -66 -35 -25
-314 -292 -260 -209 -179 -149 -165 -133 -95 -80 -79 -68 -56 -51 -62 -120 -73 -65 -93 -97 -70 -68 -60 -60 -92 -89 -76 -87 -88 -79 -60 -41 -51 -0 -21 -0 -89 -84 -108 -123 -161 -74 -55
Wind_Speed
20 28 26 24 27 26 28 32 34 32 32 33 32 31 31 29 29 29 30 29 30 28 27 27 18 20 19 5 2 5 9 10 10 9 8 9 9 4 3 3 7 9 9
31 32 28 27 27 25 27 34 33 32 31 31 30 31 31 30 29 29 29 29 29 27 25 28 6 14 20 5 4 8 9 9 8 5 6 9 16 14 15 20 15 15 16
33 34 30 28 29 27 33 33 33 31 31 30 30 29 29 28 28 28 28 27 27 27 23 25 8 3 26 14 12 9 7 4 7 6 8 11 16 19 21 16 13 16 19
33 34 33 32 33 33 33 32 31 30 30 29 28 28 27 26 26 26 27 27 27 27 24 24 27 24 12 17 19 14 4 3 4 7 11 12 14 15 13 10 10 17 18
33 28 33 34 33 32 31 30 30 30 29 28 27 26 25 24 24 24 25 26 26 26 26 25 27 30 30 19 21 16 7 4 7 9 9 12 13 14 12 13 13 17 15
32 32 32 32 31 30 29 28 27 27 26 26 25 25 23 22 22 22 23 24 23 25 25 26 26 27 29 29 23 16 11 7 8 9 10 10 11 11 11 13 16 15 13
27 28 31 30 29 28 27 26 25 24 24 23 22 22 21 21 20 20 19 20 21 21 24 26 25 23 25 26 27 20 17 13 10 8 9 11 11 11 11 10 13 11 17
31 30 30 29 27 26 25 24 23 23 22 21 20 20 19 19 19 19 18 19 19 21 22 25 26 26 22 24 25 23 21 18 14 9 8 11 10 9 11 10 14 13 15
30 30 28 28 27 25 24 23 22 22 21 20 19 19 18 17 18 18 18 19 20 20 23 24 25 25 24 22 24 25 21 20 20 17 12 10 11 10 11 13 10 11 12
29 29 28 27 26 25 24 23 22 21 20 19 18 18 17 17 18 18 18 19 20 20 22 23 24 24 24 23 22 24 23 21 20 22 18 14 11 9 12 14 13 13 11
28 28 27 26 25 24 23 22 21 20 20 19 18 17 17 17 16 16 18 19 20 20 21 23 23 24 24 24 22 22 22 23 22 22 21 21 18 14 12 10 11 12 12
28 28 27 26 24 23 22 21 20 20 20 19 18 18 18 17 15 17 18 19 19 20 21 21 23 24 24 24 23 22 19 21 24 25 24 24 21 17 14 10 11 11 12
26 26 25 25 23 23 22 20 19 20 19 19 18 17 17 16 14 16 17 17 18 19 20 20 22 22 24 24 24 22 21 21 24 25 25 25 25 22 18 13 12 9 11
26 26 27 25 24 23 22 20 20 20 19 19 19 17 16 15 15 17 18 18 17 19 20 20 20 21 22 23 24 23 22 22 23 24 24 24 22 24 25 16 7 8 12
23 25 26 26 25 24 23 21 20 20 19 19 18 17 16 16 16 17 18 17 18 19 19 20 16 20 21 19 22 22 23 22 20 24 24 21 20 23 24 4 19 14 9
19 19 23 24 22 23 22 20 18 19 19 19 19 18 17 16 16 17 18 17 17 18 18 19 19 15 18 22 22 21 21 22 21 22 21 18 16 16 25 26 9 19 17
20 18 16 17 16 20 20 19 17 17 17 18 18 18 17 17 16 18 17 17 17 17 18 17 16 16 10 17 20 19 18 24 22 13 5 14 15 11 13 27 12 5 9
19 19 18 12 13 16 17 16 14 16 17 18 18 18 17 16 15 18 16 16 16 15 16 15 13 14 15 12 14 10 3 14 16 11 22 24 7 7 16 14 17 8 21
20 20 18 12 13 13 14 11 11 8 9 14 17 18 14 15 16 14 16 16 15 17 14 14 13 12 9 8 10 6 3 13 16 14 20 20 7 5 7 4 2 27 27
19 19 16 13 13 12 12 9 8 8 10 13 18 17 18 18 18 15 16 15 15 14 13 13 12 16 18 11 11 7 5 7 14 21 25 23 6 12 13 12 7 10 25
19 17 18 16 16 14 11 10 8 5 14 20 19 19 19 17 17 15 15 14 13 13 12 12 13 14 16 15 14 9 12 18 19 21 21 22 23 14 10 11 6 5 7
22 22 21 21 19 17 15 14 6 9 17 19 20 21 19 17 16 15 15 14 14 14 15 15 15 9 14 15 12 12 5 6 16 17 15 14 13 11 7 13 8 7 6
20 24 24 23 22 21 20 16 6 10 17 18 19 20 20 17 16 15 15 15 14 13 14 16 18 17 14 19 15 13 13 15 13 11 10 12 12 14 22 6 3 8 12
22 23 23 23 23 22 21 21 19 17 21 20 19 18 18 18 17 16 15 15 14 14 15 17 19 18 16 16 17 14 15 15 13 14 15 13 18 16 17 20 23 23 20
21 23 23 22 22 23 23 22 21 21 22 17 14 16 19 20 18 16 15 15 14 14 15 16 16 17 16 15 15 14 13 12 12 13 13 13 14 10 13 9 13 7 11
20 17 18 21 21 23 24 23 21 21 21 20 18 20 19 19 18 16 15 16 15 14 15 16 16 16 15 14 14 13 11 12 12 12 11 11 9 13 10 10 9 10 10
Wind_Direction
178 155 95 84 85 80 83 90 97 95 98 98 94 94 91 84 86 82 89 83 87 97 104 99 145 158 166 195 174 177 176 174 171 170 173 175 176 168 151 104 167 169 165
149 145 101 94 91 82 85 103 99 97 96 96 90 101 97 95 91 91 89 87 75 103 115 98 178 172 164 158 157 175 175 177 178 170 176 176 170 168 168 162 169 170 169
138 136 109 99 98 90 103 103 109 101 100 97 97 107 107 103 100 93 91 92 72 102 124 119 166 75 150 68 168 165 170 161 176 174 176 176 171 164 158 167 171 170 165
135 140 138 111 115 113 116 111 115 106 107 102 98 108 109 111 106 104 93 92 86 92 126 128 123 84 172 170 165 168 152 159 171 176 177 176 176 175 174 176 175 167 166
145 166 147 136 128 123 123 125 116 121 126 109 108 109 112 118 113 107 102 99 101 87 108 127 127 124 129 174 168 171 177 168 176 179 179 177 178 178 180 176 175 169 173
158 154 151 131 134 130 132 137 134 134 131 114 115 112 115 121 120 115 112 106 111 118 109 122 133 136 135 148 171 181 189 194 188 188 183 187 186 185 189 182 175 179 184
177 174 154 142 142 141 142 140 141 137 130 119 123 124 122 123 124 127 128 123 121 135 121 116 145 156 153 160 165 185 187 194 201 203 197 192 197 196 195 195 189 195 179
162 164 158 144 144 144 144 139 142 142 134 128 141 133 129 133 133 135 136 134 135 136 146 132 144 149 162 158 171 186 188 195 207 215 220 206 210 218 206 208 193 197 189
163 163 160 151 149 151 149 145 146 144 144 143 141 147 145 148 143 139 140 135 135 140 143 142 142 147 155 162 165 181 199 201 199 211 223 227 217 223 218 210 215 211 206
163 167 158 154 157 158 154 150 151 153 152 146 148 153 151 156 149 143 136 140 135 136 141 139 135 153 156 160 170 166 194 207 204 191 207 224 231 239 225 216 221 218 228
170 170 161 154 159 158 152 154 146 153 158 150 147 143 153 170 167 166 130 136 135 138 149 145 148 148 155 166 174 176 183 197 208 203 206 200 211 227 237 250 243 237 237
162 172 173 161 156 155 152 147 146 156 157 157 158 159 154 139 172 152 123 124 131 139 144 152 148 146 154 173 165 175 202 197 193 194 197 193 206 228 247 272 266 265 256
153 162 159 161 155 158 154 143 147 156 154 159 162 144 166 156 165 141 128 113 156 149 153 153 155 147 157 163 167 181 182 192 188 183 190 174 184 212 235 266 277 303 294
154 162 171 162 161 157 159 152 152 160 162 161 163 154 143 163 168 146 130 130 129 169 162 148 144 152 149 162 176 174 174 186 184 178 186 170 163 179 194 258 333 329 299
143 151 164 164 170 166 161 157 148 161 161 163 170 161 159 172 176 158 148 144 134 145 162 162 111 145 150 128 159 167 175 177 192 177 194 162 158 175 186 23 259 287 333
135 134 149 159 152 161 158 154 153 161 161 168 190 182 182 170 169 163 143 149 142 134 144 153 148 124 143 170 170 171 169 183 184 166 169 150 143 151 199 223 311 269 280
143 140 136 138 133 154 154 152 151 158 149 164 180 183 177 176 127 175 138 149 148 142 131 127 124 134 93 154 175 167 162 193 192 128 358 137 149 124 152 218 303 93 126
146 148 147 125 131 142 145 144 140 156 158 173 178 183 158 149 130 197 154 153 148 119 113 107 82 121 140 143 167 158 5 293 290 314 261 217 101 112 162 180 286 322 189
158 158 153 133 138 136 138 123 120 23 35 140 166 160 127 109 168 96 144 136 111 107 96 103 84 26 81 50 12 344 75 293 290 301 274 273 103 16 123 109 266 244 224
163 161 151 140 141 131 127 101 94 3 342 320 155 146 164 223 188 140 140 123 98 99 82 79 60 315 290 116 42 29 359 348 295 269 224 233 2 321 312 321 341 223 213
167 161 161 149 147 134 119 110 102 43 303 194 168 169 177 177 153 124 137 124 98 107 111 92 8 336 315 33 35 11 58 143 167 190 195 203 203 307 330 327 29 88 132
175 173 168 166 156 150 139 135 23 341 265 239 214 193 210 146 124 127 132 120 111 101 93 98 92 262 277 42 312 15 111 168 161 164 145 140 136 129 352 317 356 5 122
167 173 173 170 166 164 159 140 345 324 267 251 247 229 199 142 137 127 133 127 134 120 118 134 138 160 258 150 95 347 327 319 354 29 100 118 128 148 214 349 31 151 164
169 167 168 166 167 168 162 159 154 148 194 249 254 259 259 179 162 158 147 144 133 143 144 150 159 173 190 115 146 199 335 0 16 356 330 334 189 175 186 207 224 222 202
157 159 161 161 164 168 168 167 168 175 196 273 295 272 259 257 214 155 139 136 141 131 148 147 141 150 143 120 127 109 125 94 71 48 23 9 345 107 165 125 164 19 340
156 150 154 160 163 168 172 171 172 174 178 223 285 255 272 274 217 157 133 141 147 137 142 145 148 152 150 142 151 154 139 99 118 120 103 75 44 358 18 20 20 6 359